Dauntless Aviation
Airports Europe United Kingdom
EGLC
LCY

London City

London, UNITED KINGDOM

Airport Info
Suggest Updated Information for this Airport

Location

Latitude / Longitude: 51°30'18"N / 0°3'12"E
  51°30.3'N / 0°3.21'E
  51.5050 / 0.0535

Nearby radio navigation aids

LCY CITY NDB on field.

Runway Information

Runway 10 /28

Dimensions: 4948 x 98 ft.
Surface: ASP
 
Runway 10
Runway 28
Latitude: 51.505528 51.504922
Longitude: 0.045753 0.064953
Elevation: 16 ft. 16 ft.
Runway true heading: 91.1 271.1
 

Instrument Procedures

  Aerodrome Chart
  Aircraft Parking/Docking Chart
  Control Zone and Control Area Chart

STARs (Standard Terminal Arrivals)

  Standard Instrument Arrival Coding Tables Rwy 09/27 JACKO 1L/ 1M
  Standard Instrument Arrival Coding Tables Rwy 09/27 GODLU 1G/ 1H
  Standard Instrument Arrival Coding Tables Rwy 09/27 GODLU 1J/ 1K/ 1L
  RNAV1 (DME/DME or GNSS) Transition Arrival Chart - Instrument Rwy 27 LAVNO 1G 1J
  RNAV1 (DME/DME or GNSS) Transition Arrival Chart - Instrument Rwy 09 ODLEG 1G 1J
  RNAV5 (VOR/DME/ DME/DME or GNSS) STAR - Instrument Rwy 09/27 JACKO 1A 1B 1D
  RNAV5 (VOR/DME/ DME/DME or GNSS) STAR - Instrument Rwy 09/27 GODLU 1A 1C 1D 1F
  RNAV5 (VOR/DME/ DME/DME or GNSS) STAR - Instrument Rwy 09/27 JACKO 1H
  RNAV5 (VOR/DME/ DME/DME or GNSS) STAR - Instrument Rwy 09/27 JACKO 1L 1M
  RNAV5 (VOR/DME/ DME/DME or GNSS) STAR - Instrument Rwy 09/27 GODLU 1G 1H
  RNAV5 (VOR/DME/ DME/DME or GNSS) STAR - Instrument Rwy 09/27 GODLU 1J 1K 1L
  Standard Instrument Arrival Coding Tables Rwy 09/27 JACKO 1A/ 1B/ 1D
  Standard Instrument Arrival Coding Tables Rwy 09/27 GODLU 1A/ 1C/ 1D/ 1F
  Standard Instrument Arrival Coding Tables Rwy 09/27 JACKO 1H

IAPs (Instrument Approach Procedures)

  ILS (5.5°GP) /DME/NDB (L) Rwy 09 (Aircraft CAT A/B/C)
  LOC/DME/NDB (L) Rwy 09
  LOC/DME/NDB (L) Rwy 27 (Aircraft CAT A/B/C)
  Visual Approach Profile Rwy 27
  Visual Approach Profile Rwy 09
  ILS (5.5°GP) /DME/NDB (L) Rwy 27 (Aircraft CAT A/B/C)
  Aerodrome Information (Textual)
  Transition Coding Tables Rwy 27 LAVNO 1G/ 1J
  Transition Coding Tables Rwy 09 ODLEG 1G 1J
  RNAV Hold Coding Tables GODLU/ OKVAP/ JACKO/ ROPMU
  ATC Surveillance Minimum Altitude Chart

Departure Procedures

  Standard Instrument Departure Coding Tables Rwy 09 BPK 1H/ CPT 1H
  Standard Instrument Departure Coding Tables Rwy 09 CLN 1H/ Rwy 27 CLN 1A
  SID - Instrument (SID) Rwy 09/27 DVR 5T 5U LYD 5T 5U
  SID - Instrument (SID) Rwy 09/27 CLN 7T 7U
  SID - Instrument (SID) Rwy 09/27 BPK 5T 5U CPT 6T 6U
  RNAV1 (DME/DME or GNSS) SID - Instrument (SID) Rwy 27 BPK 1A CPT 1A
  RNAV1 (DME/DME or GNSS) SID - Instrument (SID) Rwy 09 BPK 1H CPT 1H
  RNAV1 (DME/DME or GNSS) SID - Instrument (SID) Rwy 09/27 CLN 1A 1H
  Standard Instrument Departure Coding Tables Rwy 27 BPK 1A/ CPT 1A
  RNAV1 (DME/DME or GNSS) SID - Instrument (SID) Rwy 09/27 EKNIV 1A 1H
  Standard Instrument Departure Coding Tables Rwy 09 EKNIV 1H/ Rwy 27 EKNIV 1A
Satellite photo at:
Airport distance calculator
From:
Weather Reports

METAR

EGLC

EGLC 241520Z AUTO 25007KT 210V280 9999 NCD 10/04 Q1027
EGKB
11.4nm S
EGKB 241520Z VRB03KT 9999 FEW030 09/03 Q1027
EGWU
17.8nm W
EGWU 241450Z 27007KT CAVOK 09/04 Q1027 NOSIG
EGLL
18.9nm SW
EGLL 241520Z AUTO 28005KT 9999 NCD 09/05 Q1027
EGSS
23.5nm N
EGSS 241520Z AUTO 20003KT 9999 NCD 08/04 Q1027
EGKK
23.8nm S
EGKK 241520Z 23004KT CAVOK 09/04 Q1027

TAF

EGLC
TAF EGLC 241401Z 2415/2422 25006KT CAVOK BECMG 2417/2419 6000 BECMG 2419/2422 3000 BR
EGKB
11.4nm S
TAF EGKB 241401Z 2415/2421 26004KT 9999 FEW020 BECMG 2418/2421 4000 BR
EGWU
17.8nm W
TAF EGWU 241344Z 2415/2509 VRB03KT 9999 FEW048 BECMG 2415/2418 2500 BR BECMG 2418/2421 0200 FZFG VV///
EGLL
18.9nm SW
TAF AMD EGLL 241349Z 2413/2518 23003KT 9999 FEW030 TEMPO 2413/2417 8000 BECMG 2417/2420 3000 BR PROB40 2420/2502 0200 FG VV/// BECMG 2502/2505 0200 FG VV/// BECMG 2509/2512 6000 NSW BKN008 BECMG 2512/2515 9999 BKN012
EGSS
23.5nm N
TAF EGSS 241058Z 2412/2518 23003KT 3500 BR NSC BECMG 2412/2415 6000 NSW PROB30 TEMPO 2414/2417 CAVOK BECMG 2417/2420 1200 BR BECMG 2420/2423 0300 FZFG VV/// PROB30 2423/2509 1000 BR NSC BECMG 2509/2512 3000 BR BKN003 BECMG 2512/2515 6000 NSW BKN008 TEMPO 2514/2518 9999 BKN010
EGKK
23.8nm S
TAF AMD EGKK 241318Z 2413/2518 VRB02KT 6000 FEW020 TEMPO 2413/2416 9999 BECMG 2416/2419 3000 BR PROB40 2418/2504 0200 FG FZFG VV/// BECMG 2504/2507 0100 FZFG VV/// BECMG 2508/2510 6000 NSW BKN006 BECMG 2512/2515 9999 BKN010
Safelog

 

Dauntless Aviation

© 2007-2017 Dauntless Aviation, all rights reserved
Information provided via PilotNav comes from a variety of official and unofficial data sources. As errors are possible, do not use PilotNav for primary flight planning purposes. Verify any information that you receive via PilotNav with current and canonical charts and other official documents. The material in this database is subject to database copyrights held by Dauntless Aviation and may not be copied without the express permission of Dauntless Aviation - licenses for use of part of all of this data are available for purchase; enquire via the Dauntless Aviation helpdesk. A number of mechanisms and markers exist in the database to protect against and identify infringement / copyright. Automated queries against this website are stictly prohibited, and all activity is logged and analyzed.